Change the Weather History Date:

Saturday, October 26, 2013

  Actual Average Record
Temperature  
Mean Temperature 36 °F -  
Max Temperature 41 °F 43 °F 62 °F (2000)
Min Temperature 30 °F 28 °F 12 °F (1997)
Degree Days  
Heating Degree Days 30    
Moisture  
Dew Point 30 °F    
Average Humidity 76    
Maximum Humidity 93    
Minimum Humidity 61    
Precipitation  
Precipitation 0.00 in - - ()
Sea Level Pressure  
Sea Level Pressure 29.92 in    
Wind  
Wind Speed 8 mph (WNW)    
Max Wind Speed 14 mph    
Max Gust Speed 22 mph    
Visibility 10 miles    
Events Rain    
Averages and records for this station are not official NWS values.
T = Trace of Precipitation, MM = Missing Value Source: NWS Daily Summary

Daily Weather History Graph

Daily Weather History Graph

Search for Another Location

Airport or City:

Trip Planner

Search our weather history database for the weather conditions in past years. The results will help you decide how hot, cold, wet, or windy it might be!

Date:

Astronomy

Oct. 26, 2013 Rise Set
Actual Time 7:46 AM CDT 6:02 PM CDT
Civil Twilight 7:14 AM CDT 6:33 PM CDT
Nautical Twilight 6:38 AM CDT 7:10 PM CDT
Astronomical Twilight 6:02 AM CDT 7:45 PM CDT
Moon No Moon Rise 2:06 PM CDT (10/26)
Length of Visible Light 11h 19m
Length of Day
10h 15m
Waning Gibbous, 53% of the Moon is Illuminated
Oct 26
Waning Gibbous
Oct 26
Last Quarter
Nov 3
New
Nov 9
First Quarter
Nov 17
Full

Hourly Weather History & Observations

Time (CDT) Temp. Windchill Dew Point Humidity Pressure Visibility Wind Dir Wind Speed Gust Speed Precip Events Conditions
12:17 AM 39.2 °F 32.5 °F 33.8 °F 81% 29.71 in 10.0 mi WNW 10.4 mph 18.4 mph N/A   Overcast
12:36 AM 37.4 °F 30.3 °F 32.0 °F 81% 29.71 in 10.0 mi WNW 10.4 mph - N/A   Mostly Cloudy
12:56 AM 39.2 °F 32.5 °F 32.0 °F 75% 29.72 in 10.0 mi WNW 10.4 mph 17.3 mph N/A   Overcast
1:17 AM 39.2 °F 33.6 °F 32.0 °F 75% 29.72 in 10.0 mi WNW 8.1 mph - N/A   Overcast
1:36 AM 39.2 °F 32.5 °F 33.8 °F 81% 29.73 in 10.0 mi WNW 10.4 mph - N/A   Overcast
1:56 AM 37.4 °F 30.3 °F 33.8 °F 87% 29.74 in 10.0 mi WNW 10.4 mph - N/A   Overcast
2:17 AM 37.4 °F 30.8 °F 33.8 °F 87% 29.75 in 10.0 mi WNW 9.2 mph - N/A Rain Light Rain
2:36 AM 37.4 °F 30.8 °F 33.8 °F 87% 29.75 in 10.0 mi WNW 9.2 mph 18.4 mph N/A   Overcast
2:56 AM 37.4 °F 31.4 °F 33.8 °F 87% 29.76 in 10.0 mi WNW 8.1 mph 18.4 mph N/A   Overcast
3:17 AM 37.4 °F 32.1 °F 33.8 °F 87% 29.76 in 10.0 mi WNW 6.9 mph - N/A   Overcast
3:36 AM 37.4 °F 30.8 °F 32.0 °F 81% 29.77 in 10.0 mi WNW 9.2 mph - N/A   Overcast
3:56 AM 37.4 °F 30.8 °F 33.8 °F 87% 29.77 in 10.0 mi WNW 9.2 mph 17.3 mph N/A Rain Light Rain
4:17 AM 37.4 °F 29.8 °F 32.0 °F 81% 29.78 in 10.0 mi WNW 11.5 mph 18.4 mph N/A   Overcast
4:36 AM 35.6 °F 27.5 °F 33.8 °F 93% 29.79 in 10.0 mi WNW 11.5 mph 18.4 mph N/A   Overcast
4:56 AM 35.6 °F 28.0 °F 32.0 °F 87% 29.80 in 10.0 mi WNW 10.4 mph 21.9 mph N/A   Overcast
5:17 AM 35.6 °F 26.6 °F 32.0 °F 87% 29.81 in 10.0 mi WNW 13.8 mph 19.6 mph N/A   Overcast
5:36 AM 35.6 °F 27.1 °F 32.0 °F 87% 29.81 in 10.0 mi WNW 12.7 mph 18.4 mph N/A   Overcast
5:56 AM 35.6 °F 27.1 °F 32.0 °F 87% 29.83 in 10.0 mi WNW 12.7 mph 21.9 mph N/A   Overcast
6:17 AM 35.6 °F 29.2 °F 32.0 °F 87% 29.84 in 10.0 mi WNW 8.1 mph 19.6 mph N/A   Overcast
6:36 AM 35.6 °F 28.6 °F 32.0 °F 87% 29.85 in 10.0 mi WNW 9.2 mph 16.1 mph N/A   Overcast
6:56 AM 37.4 °F 29.3 °F 30.2 °F 75% 29.86 in 10.0 mi NW 12.7 mph 21.9 mph N/A   Overcast
7:16 AM 37.4 °F 31.4 °F 30.2 °F 75% 29.87 in 10.0 mi NW 8.1 mph 20.7 mph N/A   Overcast
7:37 AM 37.4 °F 30.8 °F 30.2 °F 75% 29.87 in 10.0 mi WNW 9.2 mph 21.9 mph N/A   Overcast
7:56 AM 35.6 °F 28.0 °F 30.2 °F 81% 29.89 in 10.0 mi WNW 10.4 mph - N/A   Overcast
8:16 AM 35.6 °F 29.2 °F 30.2 °F 81% 29.90 in 10.0 mi NW 8.1 mph - N/A   Overcast
8:37 AM 35.6 °F 28.0 °F 30.2 °F 81% 29.91 in 10.0 mi WNW 10.4 mph 18.4 mph N/A   Mostly Cloudy
8:56 AM 35.6 °F 27.5 °F 30.2 °F 81% 29.92 in 10.0 mi NW 11.5 mph 21.9 mph N/A   Overcast
9:16 AM 35.6 °F 28.6 °F 30.2 °F 81% 29.92 in 10.0 mi NW 9.2 mph - N/A   Overcast
9:37 AM 37.4 °F 30.3 °F 30.2 °F 75% 29.93 in 10.0 mi WNW 10.4 mph - N/A   Overcast
9:56 AM 35.6 °F 27.5 °F 32.0 °F 87% 29.95 in 7.0 mi NW 11.5 mph 17.3 mph N/A   Light Drizzle
10:16 AM 35.6 °F 28.6 °F 33.8 °F 93% 29.96 in 10.0 mi NNW 9.2 mph - N/A Rain Light Rain
10:37 AM 35.6 °F 28.6 °F 32.0 °F 87% 29.97 in 10.0 mi NNW 9.2 mph - N/A   Overcast
10:56 AM 37.4 °F 33.8 °F 32.0 °F 81% 29.97 in 10.0 mi NNW 4.6 mph - N/A   Overcast
11:16 AM 37.4 °F 30.3 °F 30.2 °F 75% 29.98 in 10.0 mi NNW 10.4 mph - N/A   Overcast
11:37 AM 37.4 °F 31.4 °F 30.2 °F 75% 29.99 in 10.0 mi NW 8.1 mph - N/A   Overcast
11:56 AM 37.4 °F 32.1 °F 28.4 °F 70% 29.99 in 10.0 mi NNW 6.9 mph - N/A   Overcast
12:16 PM 41.0 °F 36.4 °F 28.4 °F 61% 29.99 in 10.0 mi NW 6.9 mph - N/A   Scattered Clouds
12:37 PM 39.2 °F 34.2 °F 28.4 °F 65% 30.00 in 10.0 mi North 6.9 mph - N/A   Overcast
12:56 PM 41.0 °F 35.8 °F 28.4 °F 61% 30.00 in 10.0 mi WNW 8.1 mph - N/A   Mostly Cloudy
1:16 PM 37.4 °F 30.3 °F 28.4 °F 70% 30.01 in 10.0 mi WNW 10.4 mph 17.3 mph N/A   Mostly Cloudy
1:37 PM 37.4 °F 30.8 °F 30.2 °F 75% 30.01 in 10.0 mi NW 9.2 mph 17.3 mph N/A   Overcast
1:56 PM 37.4 °F 30.3 °F 30.2 °F 75% 30.01 in 10.0 mi WNW 10.4 mph 18.4 mph N/A   Overcast
2:16 PM 37.4 °F 30.3 °F 28.4 °F 70% 30.02 in 10.0 mi NW 10.4 mph - N/A   Overcast
2:37 PM 37.4 °F 30.8 °F 28.4 °F 70% 30.02 in 10.0 mi West 9.2 mph - N/A   Mostly Cloudy
2:56 PM 41.0 °F 33.5 °F 28.4 °F 61% 30.02 in 10.0 mi NW 13.8 mph 20.7 mph N/A   Mostly Cloudy
3:16 PM 39.2 °F 32.5 °F 26.6 °F 61% 30.02 in 10.0 mi WNW 10.4 mph 16.1 mph N/A   Overcast
3:37 PM 39.2 °F 33.6 °F 28.4 °F 65% 30.02 in 10.0 mi NW 8.1 mph - N/A   Overcast
3:56 PM 37.4 °F 32.8 °F 28.4 °F 70% 30.01 in 10.0 mi NW 5.8 mph - N/A   Overcast
4:16 PM 37.4 °F 32.8 °F 26.6 °F 65% 30.02 in 10.0 mi WNW 5.8 mph - N/A   Overcast
4:37 PM 37.4 °F 32.8 °F 26.6 °F 65% 30.02 in 10.0 mi WNW 5.8 mph - N/A   Overcast
4:56 PM 37.4 °F 33.8 °F 28.4 °F 70% 30.02 in 10.0 mi NW 4.6 mph - N/A   Overcast
5:16 PM 37.4 °F 32.1 °F 26.6 °F 65% 30.02 in 10.0 mi WNW 6.9 mph - N/A   Overcast
5:36 PM 37.4 °F 33.8 °F 26.6 °F 65% 30.01 in 10.0 mi WNW 4.6 mph - N/A   Overcast
5:57 PM 37.4 °F 34.9 °F 26.6 °F 65% 30.01 in 10.0 mi WNW 3.5 mph - N/A   Overcast
6:16 PM 37.4 °F - 26.6 °F 65% 30.01 in 10.0 mi Calm Calm - N/A   Overcast
6:37 PM 35.6 °F - 28.4 °F 75% 30.01 in 10.0 mi Calm Calm - N/A   Overcast
6:56 PM 35.6 °F - 28.4 °F 75% 30.00 in 10.0 mi Calm Calm - N/A   Overcast
7:16 PM 35.6 °F - 28.4 °F 75% 29.99 in 10.0 mi Calm Calm - N/A   Overcast
7:37 PM 35.6 °F - 28.4 °F 75% 30.00 in 10.0 mi Calm Calm - N/A   Overcast
7:56 PM 35.6 °F 31.7 °F 26.6 °F 70% 30.00 in 10.0 mi West 4.6 mph - N/A   Overcast
8:16 PM 35.6 °F 29.9 °F 26.6 °F 70% 29.99 in 10.0 mi West 6.9 mph - N/A   Overcast
8:37 PM 35.6 °F 32.8 °F 26.6 °F 70% 29.98 in 10.0 mi WSW 3.5 mph - N/A   Overcast
8:56 PM 35.6 °F 31.7 °F 26.6 °F 70% 29.97 in 10.0 mi West 4.6 mph - N/A   Scattered Clouds
9:17 PM 35.6 °F 32.8 °F 26.6 °F 70% 29.97 in 10.0 mi SW 3.5 mph - N/A   Scattered Clouds
9:36 PM 33.8 °F - 26.6 °F 75% 29.97 in 10.0 mi Calm Calm - N/A   Scattered Clouds
9:57 PM 33.8 °F - 26.6 °F 75% 29.96 in 10.0 mi Calm Calm - N/A   Scattered Clouds
10:17 PM 33.8 °F - 26.6 °F 75% 29.95 in 10.0 mi Calm Calm - N/A   Scattered Clouds
10:36 PM 30.2 °F - 26.6 °F 86% 29.94 in 10.0 mi Calm Calm - N/A   Scattered Clouds
10:57 PM 32.0 °F - 26.6 °F 80% 29.93 in 10.0 mi Calm Calm - N/A   Overcast
11:16 PM 33.8 °F - 26.6 °F 75% 29.93 in 10.0 mi Calm Calm - N/A   Overcast
11:36 PM 33.8 °F 29.6 °F 26.6 °F 75% 29.92 in 10.0 mi SSW 4.6 mph - N/A   Overcast
11:57 PM 33.8 °F 29.6 °F 26.6 °F 75% 29.92 in 10.0 mi SSW 4.6 mph - N/A   Overcast